This demonstration page uses our WeatherBlox Daily Observations layout. Learn more.

Left ArrowRight Arrow

41.55636, -103.73856

Hourly Observations for February 12, 2020

Temp ( °F °C ) Dew Point ( °F °C ) Humidity (%) Winds ( mph kmh ) Pressure ( in mb ) Visibility ( mi km ) Precip ( " mm )
12:53 am 00:53 Cloudy 32 undefined 17 -8.3 54 54 WNW 9 15 29.81 1009 10 16 N/A
1:53 am 01:53 Partly Cloudy 34 1.1 16 -8.9 48 48 WNW 14 22 29.81 1010 10 16 N/A
2:53 am 02:53 Cloudy 31 -0.6 16 -8.9 54 54 NW 10 17 29.83 1010 10 16 N/A
3:53 am 03:53 Cloudy 31 -0.6 17 -8.3 56 56 WNW 12 19 29.85 1011 10 16 N/A
4:53 am 04:53 Cloudy 32 undefined 18 -7.8 56 56 WNW 13 20 29.87 1011 10 16 N/A
5:53 am 05:53 Mostly Cloudy 31 -0.6 20 -6.7 64 64 WNW 14 22 29.90 1013 10 16 N/A
6:53 am 06:53 Clear 31 -0.6 22 -5.6 69 69 WNW 20 31 29.90 1013 10 16 N/A
7:53 am 07:53 Mostly Cloudy 32 undefined 23 -5 69 69 NW 16 26 29.96 1015 10 16 N/A
8:53 am 08:53 Sunny 35 1.7 23 -5 61 61 NW 21 33 29.97 1015 10 16 N/A
9:53 am 09:53 Partly Cloudy 35 1.7 21 -6.1 57 57 NNW 24 39 30.01 1016 10 16 N/A
10:53 am 10:53 Cloudy 35 1.7 21 -6.1 57 57 N 18 30 30.03 1017 10 16 N/A
11:53 am 11:53 Cloudy 33 0.6 22 -5.6 64 64 NNE 22 35 30.07 1018 10 16 N/A
12:18 pm 12:18 Cloudy 33 0.6 22 -5.6 64 64 NNE 21 33 30.12 1020 10 16 N/A
12:53 pm 12:53 Cloudy 28 -2.2 19 -7.2 69 69 NNE 20 31 30.11 1020 10 16 N/A
1:31 pm 13:31 Cloudy 27 -2.8 18 -7.8 69 69 NNE 21 33 30.20 1023 10 16 N/A
1:53 pm 13:53 Cloudy 27 -2.8 17 -8.3 66 66 NNE 21 33 30.12 1020 10 16 N/A
2:53 pm 14:53 Cloudy 26 -3.3 14 -10 60 60 NNE 22 35 30.14 1021 10 16 N/A
3:53 pm 15:53 Cloudy 23 -5 14 -10 68 68 NNE 15 24 30.17 1022 10 16 N/A
4:53 pm 16:53 Mostly Cloudy 22 -5.6 12 -11.1 66 66 N 13 20 30.20 1023 10 16 N/A
5:53 pm 17:53 Cloudy 20 -6.7 12 -11.1 71 71 NE 8 13 30.22 1023 10 16 N/A
6:53 pm 18:53 Mostly Cloudy 19 -7.2 11 -11.7 71 71 NNE 3 6 30.24 1024 10 16 N/A
7:53 pm 19:53 Cloudy 19 -7.2 12 -11.1 74 74 NNE 3 6 30.24 1024 10 16 N/A
8:02 pm 20:02 Cloudy with Light Snow 19 -7.2 13 -10.6 77 77 NNE 6 9 30.38 1029 2 3 0.00 0.00
8:10 pm 20:10 Cloudy with Light Snow 19 -7 14 -10 79 79 NNE 3 6 30.37 1028 2 3 N/A
8:30 pm 20:30 Cloudy with Light Snow 18 -7.8 14 -10 84 84 NE 3 6 30.39 1029 4 6 0.00 0.00
8:43 pm 20:43 Cloudy with Light Snow 18 -7.8 14 -10 84 84 N N/A 30.38 1029 2 3 0.00 0.00
8:49 pm 20:49 Cloudy with Light Snow 18 -8 14 -10 86 86 N N/A 30.39 1029 2 3 0.00 0.00
8:53 pm 20:53 Cloudy with Light Snow 18 -7.8 15 -9.4 88 88 N N/A 30.24 1024 2 2 0.00 0.00
9:45 pm 21:45 Cloudy with Light Snow 18 -7.8 15 -9.4 88 88 N N/A 30.38 1029 3 5 0.01 0.25
9:53 pm 21:53 Cloudy with Light Snow 18 -7.8 15 -9.4 88 88 N N/A 30.24 1024 4 6 0.01 0.25
10:53 pm 22:53 Cloudy with Light Snow 18 -7.8 15 -9.4 88 88 N N/A 30.23 1024 4 6 0.00 0.00
11:18 pm 23:18 Cloudy with Light Snow 18 -7.8 15 -9.4 88 88 N N/A 30.37 1029 3 4 0.00 0.00
11:37 pm 23:37 Cloudy with Light Snow 18 -7.8 15 -9.4 88 88 N N/A 30.37 1029 3 5 0.01 0.25
11:53 pm 23:53 Cloudy with Light Snow 18 -7.8 15 -9.4 88 88 N N/A 30.24 1024 3 5 0.01 0.25

Powered by AerisWeather